Aberdeen, SD

1:19 AM CDT on March 25, 2017 (GMT -0500)
Aberdeen Regional

Weather History for KABR - August, 2013

Change the Weather History Date:

Friday, August 23, 2013

  Actual Average Record
Temperature  
Mean Temperature 73 °F 68 °F  
Max Temperature 89 °F 81 °F 106 °F (2003)
Min Temperature 56 °F 55 °F 39 °F (1942)
Degree Days  
Heating Degree Days 0 2  
Month to date heating degree days 19 20  
Since 1 June heating degree days 132 110  
Since 1 July heating degree days 51 34  
Cooling Degree Days 8 4  
Month to date cooling degree days 64 132  
Year to date cooling degree days 375 455  
Since 1 June cooling degree days 354 432  
Growing Degree Days 22 (Base 50)    
Moisture  
Dew Point 63 °F    
Average Humidity 73    
Maximum Humidity 93    
Minimum Humidity 53    
Precipitation  
Precipitation 0.00 in 0.08 in 2.85 in (2014)
Month to date precipitation 0.05 1.80  
Year to date precipitation 13.47 15.66  
Sea Level Pressure  
Sea Level Pressure 29.97 in    
Wind  
Wind Speed 10 mph (SSE)    
Max Wind Speed 21 mph    
Max Gust Speed 28 mph    
Visibility 10 miles    
Events      
T = Trace of Precipitation, MM = Missing Value Source: NWS Daily Summary

Daily Weather History Graph

Daily Weather History Graph

Search for Another Location

Airport or City:

Trip Planner

Search our weather history database for the weather conditions in past years. The results will help you decide how hot, cold, wet, or windy it might be!

Date:

Astronomy

Aug. 23, 2013 Rise Set
Actual Time 6:44 AM CDT 8:27 PM CDT
Civil Twilight 6:13 AM CDT 8:58 PM CDT
Nautical Twilight 5:34 AM CDT 9:36 PM CDT
Astronomical Twilight 4:53 AM CDT 10:17 PM CDT
Moon 9:33 PM CDT (8/23) 9:53 AM CDT (8/23)
Length of Visible Light 14h 45m
Length of Day
13h 42m
Waning Gibbous, 91% of the Moon is Illuminated
Aug 23
Waning Gibbous
Aug 28
Last Quarter
Sep 5
New
Sep 12
First Quarter
Sep 19
Full

Hourly Weather History & Observations

Time (CDT) Temp. Heat Index Dew Point Humidity Pressure Visibility Wind Dir Wind Speed Gust Speed Precip Events Conditions
12:53 AM 60.1 °F - 55.0 °F 83% 30.09 in 10.0 mi Calm Calm - N/A   Scattered Clouds
1:53 AM 57.9 °F - 54.0 °F 87% 30.09 in 10.0 mi Calm Calm - N/A   Clear
2:53 AM 57.0 °F - 54.0 °F 89% 30.08 in 10.0 mi Calm Calm - N/A   Mostly Cloudy
3:53 AM 57.9 °F - 54.0 °F 87% 30.08 in 10.0 mi Calm Calm - N/A   Mostly Cloudy
4:53 AM 57.0 °F - 54.0 °F 89% 30.07 in 7.0 mi ENE 3.5 mph - N/A   Clear
5:53 AM 57.0 °F - 54.0 °F 89% 30.06 in 10.0 mi Calm Calm - N/A   Clear
6:53 AM 57.9 °F - 55.0 °F 90% 30.05 in 10.0 mi Calm Calm - N/A   Partly Cloudy
7:53 AM 61.0 °F - 55.9 °F 83% 30.06 in 9.0 mi Calm Calm - N/A   Partly Cloudy
8:53 AM 68.0 °F - 62.1 °F 81% 30.04 in 10.0 mi SE 8.1 mph - N/A   Scattered Clouds
9:53 AM 73.9 °F - 64.9 °F 73% 30.02 in 10.0 mi SSE 10.4 mph - N/A   Clear
10:53 AM 78.1 °F - 68.0 °F 71% 30.01 in 10.0 mi SSE 12.7 mph - N/A   Clear
11:53 AM 80.1 °F 82.3 °F 66.9 °F 64% 29.99 in 10.0 mi SSE 15.0 mph - N/A   Partly Cloudy
12:53 PM 82.0 °F 84.1 °F 66.0 °F 58% 29.96 in 10.0 mi SE 13.8 mph 21.9 mph N/A   Partly Cloudy
1:53 PM 84.9 °F 87.6 °F 66.9 °F 55% 29.94 in 10.0 mi SSE 16.1 mph 24.2 mph N/A   Clear
2:53 PM 86.0 °F 89.4 °F 68.0 °F 55% 29.91 in 10.0 mi SE 16.1 mph 23.0 mph N/A   Partly Cloudy
3:53 PM 87.1 °F 90.6 °F 68.0 °F 53% 29.88 in 10.0 mi SSE 16.1 mph 23.0 mph N/A   Partly Cloudy
4:53 PM 87.1 °F 91.3 °F 69.1 °F 55% 29.88 in 10.0 mi SSE 16.1 mph 23.0 mph N/A   Partly Cloudy
5:53 PM 87.1 °F 90.6 °F 68.0 °F 53% 29.86 in 10.0 mi SSE 16.1 mph 23.0 mph N/A   Mostly Cloudy
6:53 PM 84.9 °F 88.8 °F 69.1 °F 59% 29.85 in 10.0 mi SSE 16.1 mph 25.3 mph N/A   Clear
7:53 PM 82.0 °F 84.9 °F 68.0 °F 62% 29.84 in 10.0 mi SSE 13.8 mph 21.9 mph N/A   Clear
8:53 PM 80.1 °F 82.9 °F 69.1 °F 69% 29.84 in 10.0 mi SSE 10.4 mph - N/A   Partly Cloudy
9:53 PM 78.1 °F - 69.1 °F 74% 29.85 in 10.0 mi SSE 12.7 mph - N/A   Clear
10:53 PM 77.0 °F - 69.1 °F 76% 29.85 in 10.0 mi South 12.7 mph - N/A   Partly Cloudy
11:53 PM 75.9 °F - 69.1 °F 79% 29.84 in 10.0 mi SSE 15.0 mph 23.0 mph N/A   Clear